EW1857 Weather Reports


time (UTC)temp
F
wind
direction
speed
knots
gust
knots
rain 1hr
in
rain 24hr
in
rain mn
in
humidity
%
barometer
mb
20260505095120 88 0.0 0.0 0.00 0.00 0.00 28 1004.4
20260505094417 88 0.0 0.0 0.00 0.00 0.00 29 1004.5
20260505093417 88 0.0 0.0 0.00 0.00 0.00 29 1004.5
20260505092421 87 0.0 0.0 0.00 0.00 0.00 31 1004.6
20260505091922 87 0.0 0.0 0.00 0.00 0.00 30 1004.6
20260505091424 86 0.0 0.0 0.00 0.00 0.00 32 1004.6
20260505090926 86 0.0 0.0 0.00 0.00 0.00 32 1005.0
20260505090425 86 0.0 0.0 0.00 0.00 0.00 33 1005.0
20260505085925 84 0.0 0.0 0.00 0.00 0.00 36 1004.9
20260505084920 79 0.0 0.0 0.00 0.00 0.00 41 1005.2
20260505084418 75 0.0 0.0 0.00 0.00 0.00 45 1005.1
20260505083924 70 0.0 0.0 0.00 0.00 0.00 45 1004.9
20260505083425 69 0.0 0.0 0.00 0.00 0.00 47 1004.9
20260505082423 68 0.0 0.0 0.00 0.00 0.00 45 1004.8
20260505081418 68 0.0 0.0 0.00 0.00 0.00 46 1004.8
20260505080924 68 0.0 0.0 0.00 0.00 0.00 47 1005.2
20260505080423 67 0.0 0.0 0.00 0.00 0.00 47 1005.1
20260505075922 65 0.0 0.0 0.00 0.00 0.00 49 1005.1
20260505075426 65 0.0 0.0 0.00 0.00 0.00 49 1005.1
20260505074927 65 0.0 0.0 0.00 0.00 0.00 48 1005.2
20260505074425 65 0.0 0.0 0.00 0.00 0.00 48 1005.2
20260505073918 65 0.0 0.0 0.00 0.00 0.00 48 1005.2
20260505073425 65 0.0 0.0 0.00 0.00 0.00 48 1005.2
20260505072420 65 0.0 0.0 0.00 0.00 0.00 49 1004.9
20260505071923 65 0.0 0.0 0.00 0.00 0.00 48 1004.9
20260505071424 65 0.0 0.0 0.00 0.00 0.00 47 1004.9
20260505070922 66 0.0 0.0 0.00 0.00 0.00 47 1005.2
20260505070422 67 0.0 0.0 0.00 0.00 0.00 46 1005.2
20260505065926 66 0.0 0.0 0.00 0.00 0.00 48 1005.2
20260505065427 66 0.0 0.0 0.00 0.00 0.00 49 1005.2
20260505064925 65 0.0 0.0 0.00 0.00 0.00 48 1005.2
20260505063918 65 0.0 0.0 0.00 0.00 0.00 49 1005.2
20260505063426 64 0.0 0.0 0.00 0.00 0.00 51 1005.2
20260505062926 63 0.0 0.0 0.00 0.00 0.00 52 1004.9
20260505061918 62 0.0 0.0 0.00 0.00 0.00 55 1004.9
20260505060916 60 0.0 0.0 0.00 0.00 0.00 60 1004.7
20260505055919 59 0.0 0.0 0.00 0.00 0.00 62 1004.6
20260505054920 57 0.0 0.0 0.00 0.00 0.00 66 1004.7
20260505053621 56 0.0 0.0 0.00 0.00 0.00 68 1004.7
20260505052916 55 0.0 0.0 0.00 0.00 0.00 68 1004.7
20260505051917 54 0.0 0.0 0.00 0.00 0.00 69 1004.7
20260505050916 53 0.0 0.0 0.00 0.00 0.00 69 1004.6
20260505041422 52 0.0 0.0 0.00 0.00 0.00 70 1004.9
20260505040417 52 0.0 0.0 0.00 0.00 0.00 70 1004.7
20260505035925 52 0.0 0.0 0.00 0.00 0.00 70 1004.7
20260505034918 52 0.0 0.0 0.00 0.00 0.00 70 1004.8
20260505033917 52 0.0 0.0 0.00 0.00 0.00 70 1004.8
20260505032917 52 0.0 0.0 0.00 0.00 0.00 70 1004.8
20260505032418 52 0.0 0.0 0.00 0.00 0.00 70 1004.8
20260505031924 52 0.0 0.0 0.00 0.00 0.00 70 1004.8
20260505030917 52 0.0 0.0 0.00 0.00 0.00 71 1005.1
20260505025921 52 0.0 0.0 0.00 0.00 0.00 70 1005.1
20260505025425 52 0.0 0.0 0.00 0.00 0.00 70 1005.0
20260505024926 52 0.0 0.0 0.00 0.00 0.00 70 1005.1
20260505024422 53 0.0 0.0 0.00 0.00 0.00 69 1005.1
20260505023926 53 0.0 0.0 0.00 0.00 0.00 69 1005.1
20260505023427 53 0.0 0.0 0.00 0.00 0.00 69 1005.1
20260505022923 53 0.0 0.0 0.00 0.00 0.00 70 1005.1
20260505022422 53 0.0 0.0 0.00 0.00 0.00 70 1005.1
20260505021922 53 0.0 0.0 0.00 0.00 0.00 70 1005.1
20260505021424 53 0.0 0.0 0.00 0.00 0.00 69 1005.1
20260505020922 53 0.0 0.0 0.00 0.00 0.00 69 1005.4
20260505020425 53 0.0 0.0 0.00 0.00 0.00 69 1005.4
20260505015925 53 0.0 0.0 0.00 0.00 0.00 68 1005.4
20260505014916 54 0.0 0.0 0.00 0.00 0.00 68 1005.5
20260505013917 54 0.0 0.0 0.00 0.00 0.00 68 1005.5
20260505012918 54 0.0 0.0 0.00 0.00 0.00 68 1005.5
20260505011922 54 0.0 0.0 0.00 0.00 0.00 67 1005.5
20260505011425 54 0.0 0.0 0.00 0.00 0.00 67 1005.5
20260505010921 54 0.0 0.0 0.00 0.00 0.00 67 1005.6
20260505005921 55 0.0 0.0 0.00 0.00 0.00 66 1005.6
20260505005425 55 0.0 0.0 0.00 0.00 0.00 66 1005.6
20260505004924 55 0.0 0.0 0.00 0.00 0.00 66 1006.0
20260505004427 55 0.0 0.0 0.00 0.00 0.00 66 1006.0
20260505003417 55 0.0 0.0 0.00 0.00 0.00 65 1006.0
20260505002417 55 0.0 0.0 0.00 0.00 0.00 65 1006.3
20260505001926 56 0.0 0.0 0.00 0.00 0.00 65 1006.4
20260505001426 56 0.0 0.0 0.00 0.00 0.00 65 1006.4
20260505000420 56 0.0 0.0 0.00 0.00 0.00 63 1006.3
20260504235925 56 0.0 0.0 0.00 0.00 0.00 63 1006.3
20260504234919 56 0.0 0.0 0.00 0.00 0.00 63 1006.4
20260504233921 57 0.0 0.0 0.00 0.00 0.00 61 1006.5
20260504232618 57 0.0 0.0 0.00 0.00 0.00 60 1006.4
20260504231618 58 0.0 0.0 0.00 0.00 0.00 58 1006.5
20260504230916 58 0.0 0.0 0.00 0.00 0.00 58 1006.6
20260504225921 58 0.0 0.0 0.00 0.00 0.00 57 1006.6
20260504225426 58 0.0 0.0 0.00 0.00 0.00 57 1006.6
20260504224926 58 0.0 0.0 0.00 0.00 0.00 57 1006.8
20260504224424 58 0.0 0.0 0.00 0.00 0.00 57 1006.8
20260504223926 58 0.0 0.0 0.00 0.00 0.00 57 1006.8
20260504223425 58 0.0 0.0 0.00 0.00 0.00 57 1006.8
20260504222416 58 0.0 0.0 0.00 0.00 0.00 58 1006.9
20260504221421 58 0.0 0.0 0.00 0.00 0.00 58 1006.9
20260504220921 59 0.0 0.0 0.00 0.00 0.00 58 1007.1
20260504215921 59 0.0 0.0 0.00 0.00 0.00 59 1007.1
20260504215223 59 0.0 0.0 0.00 0.00 0.00 59 1007.1
20260504213916 59 0.0 0.0 0.00 0.00 0.00 58 1007.4
20260504213424 59 0.0 0.0 0.00 0.00 0.00 59 1007.4
20260504212926 59 0.0 0.0 0.00 0.00 0.00 59 1007.3
20260504211919 60 0.0 0.0 0.00 0.00 0.00 58 1007.4
20260504211425 60 0.0 0.0 0.00 0.00 0.00 58 1007.4
20260504210420 60 0.0 0.0 0.00 0.00 0.00 58 1007.6
20260504205924 60 0.0 0.0 0.00 0.00 0.00 56 1008.4
20260504204918 61 0.0 0.0 0.00 0.00 0.00 55 1008.4
20260504203918 61 0.0 0.0 0.00 0.00 0.00 54 1008.4
20260504203425 61 0.0 0.0 0.00 0.00 0.00 55 1008.4
20260504202422 61 0.0 0.0 0.00 0.00 0.00 54 1008.5
20260504201925 61 0.0 0.0 0.00 0.00 0.00 54 1008.5
20260504201425 62 0.0 0.0 0.00 0.00 0.00 54 1008.5
20260504200525 62 0.0 0.0 0.00 0.00 0.00 53 1008.4
20260504195418 62 0.0 0.0 0.00 0.00 0.00 53 1008.5
20260504194925 62 0.0 0.0 0.00 0.00 0.00 53 1008.5
20260504194424 62 0.0 0.0 0.00 0.00 0.00 53 1008.5
20260504193927 63 0.0 0.0 0.00 0.00 0.00 52 1008.4
20260504193426 63 0.0 0.0 0.00 0.00 0.00 52 1008.4
20260504192926 63 0.0 0.0 0.00 0.00 0.00 52 1008.2
20260504192425 63 0.0 0.0 0.00 0.00 0.00 51 1008.1
20260504191922 63 0.0 0.0 0.00 0.00 0.00 51 1008.1
20260504191423 64 0.0 0.0 0.00 0.00 0.00 50 1008.1
20260504190927 64 0.0 0.0 0.00 0.00 0.00 50 1008.1
20260504185916 64 0.0 0.0 0.00 0.00 0.00 49 1008.0
20260504184916 65 0.0 0.0 0.00 0.00 0.00 48 1008.0
20260504183917 65 0.0 0.0 0.00 0.00 0.00 48 1007.6
20260504182917 66 0.0 0.0 0.00 0.00 0.00 46 1007.1
20260504181920 67 0.0 0.0 0.00 0.00 0.00 44 1007.1
20260504181423 67 0.0 0.0 0.00 0.00 0.00 44 1007.1
20260504180928 68 0.0 0.0 0.00 0.00 0.00 44 1007.2
20260504175916 68 0.0 0.0 0.00 0.00 0.00 41 1007.2
20260504174918 69 0.0 0.0 0.00 0.00 0.00 39 1007.2
20260504174422 70 0.0 0.0 0.00 0.00 0.00 39 1007.1
20260504173925 70 0.0 0.0 0.00 0.00 0.00 38 1007.1
20260504173425 70 0.0 0.0 0.00 0.00 0.00 37 1007.1
20260504172417 71 0.0 0.0 0.00 0.00 0.00 38 1007.4
20260504171925 71 0.0 0.0 0.00 0.00 0.00 38 1007.2
20260504170916 71 0.0 0.0 0.00 0.00 0.00 37 1007.3
20260504150417 76 0.0 0.0 0.00 0.00 0.00 36 1007.5
20260504140917 75 0.0 0.0 0.00 0.00 0.00 36 1008.1
20260504140423 76 0.0 0.0 0.00 0.00 0.00 37 1008.2
20260504130724 76 0.0 0.0 0.00 0.00 0.00 37 1008.6
20260504110426 78 0.0 0.0 0.00 0.00 0.00 38 1009.9
20260504100522 77 0.0 0.0 0.00 0.00 0.00 38 1010.6